Location: Newark
(40.9833°N, 0.0333°W)
Time: 18:14:34
(UTC+00:00)

Tiangong 2 - Visible Passes

Search period start: 22 March 2019 00:00
Search period end: 01 April 2019 00:00
Orbit: 379 x 390 km, 42.8° (Epoch: 22 March)

Date Brightness Start Highest point End Pass type
(mag) Time Alt. Az. Time Alt. Az. Time Alt. Az.
22 Mar 1.5 04:42:57 38° WSW 04:43:35 45° SSW 04:46:38 10° SE visible
23 Mar 3.8 03:46:33 16° ESE 03:46:33 16° ESE 03:47:19 10° ESE visible
23 Mar 3.0 05:18:48 11° WSW 05:20:32 16° SW 05:22:36 10° S visible
24 Mar 3.0 04:22:34 20° S 04:22:34 20° S 04:23:58 10° SSE visible
29 Mar 3.3 19:10:04 10° SSE 19:11:09 11° SE 19:11:25 11° SE visible
30 Mar 2.0 19:45:06 10° SW 19:47:39 32° SSE 19:47:39 32° SSE visible
31 Mar 2.6 20:21:52 10° WSW 20:23:41 32° WSW 20:23:41 32° WSW visible
